Location: Hopewell Observatory
(38.8698°N, 77.6988°W)
Time: 03:10:55
(UTC-04:00)

Cosmos 2237 Rocket - Pass Details

Date: 26 May 2018
Orbit: 833 x 851 km, 71.0° (Epoch: 21 June)

Event Time Altitude Azimuth Distance (km) Brightness Sun altitude
Rises 22:04:43 0° 355° (N) 3,420 6.2 -16.2°
Reaches altitude 10° 22:09:12 10° 27° (NNE) 2,483 4.9 -16.8°
Maximum altitude 22:11:05 12° 47° (NE) 2,372 4.5 -17.0°
Drops below altitude 10° 22:12:57 10° 66° (ENE) 2,480 4.4 -17.2°
Enters shadow 22:14:29 - 80° (E) 2,717 4.5 -17.4°
